Location: Marne
(34.0056°N, 117.9064°W)
Time: 15:20:25
(UTC+00:00)

Cosmos 1726 - Pass Details

Date: 18 January 2020
Orbit: 483 x 499 km, 82.5° (Epoch: 27 February)

Event Time Altitude Azimuth Distance (km) Brightness Sun altitude
Rises 01:25:13 0° 347° (NNW) 2,551 5.6 -4.3°
Reaches altitude 10° 01:27:22 10° 341° (NNW) 1,667 4.8 -4.7°
Maximum altitude 01:30:53 48° 266° (W) 639 3.3 -5.4°
Drops below altitude 10° 01:34:22 10° 192° (SSW) 1,658 5.2 -6.0°
Sets 01:36:30 0° 186° (S) 2,535 6.1 -6.4°
